• Em Portugal
  • Lista de países
  • Para 7 dias
  • Temperatura da água
  • Mapas de satélite
  • Mapa do tempo
  • Widgets de tempo
  • user-avatar
    Iniciar Sessão

    Previsão horária em Mayrhofen

    Hoje, 19 Outubro, Sexta-feira

    Tempo Temperatura Precipitação Vento Pressão Humidade
    00:00 +5°C° 0 mm 1 m/s 618 mmHg 95%
    01:00 +5°C° 0 mm 1 m/s 618 mmHg 96%
    02:00 +5°C° 0 mm 1 m/s 618 mmHg 95%
    03:00 +5°C° 0 mm 1 m/s 618 mmHg 94%
    04:00 +4°C° 0 mm 1 m/s 618 mmHg 93%
    05:00 +4°C° 0 mm 1 m/s 618 mmHg 92%
    06:00 +4°C° 0 mm 1 m/s 618 mmHg 91%
    07:00 +4°C° 0 mm 1 m/s 618 mmHg 90%
    08:00 +6°C° 0 mm 1 m/s 619 mmHg 79%
    09:00 +9°C° 0 mm 1 m/s 620 mmHg 68%
    10:00 +11°C° 0 mm 0 m/s 621 mmHg 56%
    11:00 +13°C° 0 mm 1 m/s 622 mmHg 52%
    12:00 +13°C° 0 mm 1 m/s 622 mmHg 47%
    13:00 +14°C° 0 mm 1 m/s 622 mmHg 44%
    14:00 +13°C° 0 mm 1 m/s 622 mmHg 49%
    15:00 +13°C° 0 mm 1 m/s 621 mmHg 55%
    16:00 +12°C° 0 mm 1 m/s 621 mmHg 60%
    17:00 +10°C° 0 mm 1 m/s 621 mmHg 70%
    18:00 +7°C° 0 mm 1 m/s 620 mmHg 80%
    19:00 +4°C° 0 mm 0 m/s 619 mmHg 90%
    20:00 +3°C° 0 mm 0 m/s 619 mmHg 90%
    21:00 +3°C° 0 mm 0 m/s 619 mmHg 90%
    22:00 +3°C° 0 mm 0 m/s 620 mmHg 90%
    23:00 +4°C° 0 mm 1 m/s 620 mmHg 90%

    Amanhã, 20 Outubro, Sábado

    Tempo Temperatura Precipitação Vento Pressão Humidade
    00:00 +4°C° 0 mm 1 m/s 620 mmHg 89%
    01:00 +3°C° 0 mm 1 m/s 620 mmHg 89%
    02:00 +3°C° 0 mm 1 m/s 620 mmHg 88%
    03:00 +3°C° 0 mm 1 m/s 620 mmHg 88%
    04:00 +3°C° 0 mm 1 m/s 620 mmHg 87%
    05:00 +3°C° 0 mm 1 m/s 620 mmHg 86%
    06:00 +3°C° 0 mm 1 m/s 621 mmHg 85%
    07:00 +3°C° 0 mm 1 m/s 621 mmHg 84%
    08:00 +6°C° 0 mm 1 m/s 622 mmHg 72%
    09:00 +8°C° 0 mm 1 m/s 623 mmHg 60%
    10:00 +11°C° 0 mm 1 m/s 624 mmHg 48%
    11:00 +12°C° 0 mm 2 m/s 625 mmHg 46%
    12:00 +12°C° 0 mm 2 m/s 625 mmHg 44%
    13:00 +13°C° 0 mm 2 m/s 625 mmHg 41%
    14:00 +12°C° 0 mm 2 m/s 625 mmHg 48%
    15:00 +10°C° 0 mm 2 m/s 624 mmHg 54%
    16:00 +10°C° 0 mm 2 m/s 624 mmHg 61%
    17:00 +7°C° 0 mm 2 m/s 623 mmHg 71%
    18:00 +6°C° 0 mm 1 m/s 623 mmHg 81%
    19:00 +4°C° 0 mm 1 m/s 622 mmHg 90%
    20:00 +4°C° 0 mm 1 m/s 622 mmHg 91%
    21:00 +4°C° 0 mm 1 m/s 622 mmHg 92%
    22:00 +4°C° 0 mm 1 m/s 622 mmHg 92%
    23:00 +3°C° 0 mm 1 m/s 622 mmHg 91%

    Depois de amanhã, 21 Outubro, Domingo

    Tempo Temperatura Precipitação Vento Pressão Humidade
    00:00 +3°C° 0 mm 1 m/s 622 mmHg 90%
    01:00 +3°C° 0 mm 1 m/s 621 mmHg 89%
    02:00 +2°C° 0 mm 1 m/s 621 mmHg 87%
    03:00 +2°C° 0 mm 1 m/s 621 mmHg 85%
    04:00 +1°C° 0 mm 2 m/s 621 mmHg 83%
    05:00 +2°C° 0 mm 2 m/s 621 mmHg 82%
    06:00 +2°C° 0 mm 2 m/s 621 mmHg 82%
    07:00 +2°C° 0 mm 2 m/s 621 mmHg 81%
    08:00 +4°C° 0 mm 2 m/s 621 mmHg 72%
    09:00 +5°C° 0 mm 2 m/s 622 mmHg 62%
    10:00 +7°C° 0 mm 3 m/s 622 mmHg 53%
    11:00 +8°C° 0 mm 3 m/s 622 mmHg 50%
    12:00 +8°C° 0 mm 3 m/s 622 mmHg 48%
    13:00 +9°C° 0 mm 3 m/s 622 mmHg 45%
    14:00 +8°C° 0 mm 3 m/s 622 mmHg 50%
    15:00 +7°C° 0 mm 3 m/s 622 mmHg 55%
    16:00 +5°C° 0 mm 3 m/s 621 mmHg 59%
    17:00 +4°C° 0 mm 2 m/s 621 mmHg 70%
    18:00 +2°C° 0 mm 2 m/s 620 mmHg 80%
    19:00 +1°C° 0 mm 1 m/s 620 mmHg 90%
    20:00 +1°C° 0 mm 1 m/s 620 mmHg 90%
    21:00 0°C° 0 mm 1 m/s 620 mmHg 89%
    22:00 0°C° 0 mm 1 m/s 620 mmHg 89%
    23:00 0°C° 0 mm 1 m/s 620 mmHg 84%

    22 Outubro, Segunda-feira

    Tempo Temperatura Precipitação Vento Pressão Humidade
    00:00 -1°C° 0 mm 1 m/s 620 mmHg 80%
    01:00 -1°C° 0 mm 1 m/s 619 mmHg 75%
    02:00 -1°C° 0 mm 1 m/s 619 mmHg 70%
    03:00 -1°C° 0 mm 1 m/s 619 mmHg 65%
    04:00 -1°C° 0 mm 1 m/s 619 mmHg 60%
    05:00 -1°C° 0 mm 1 m/s 619 mmHg 57%
    06:00 -1°C° 0 mm 1 m/s 619 mmHg 53%
    07:00 -1°C° 0 mm 1 m/s 619 mmHg 49%
    08:00 +2°C° 0 mm 1 m/s 620 mmHg 43%
    09:00 +5°C° 0 mm 1 m/s 621 mmHg 36%
    10:00 +8°C° 0 mm 1 m/s 622 mmHg 30%
    11:00 +7°C° 0 mm 2 m/s 622 mmHg 31%
    12:00 +8°C° 0 mm 2 m/s 622 mmHg 32%
    13:00 +9°C° 0 mm 2 m/s 622 mmHg 33%
    14:00 +8°C° 0 mm 2 m/s 622 mmHg 40%
    15:00 +7°C° 0 mm 2 m/s 621 mmHg 46%
    16:00 +5°C° 0 mm 3 m/s 621 mmHg 53%
    17:00 +4°C° 0 mm 2 m/s 620 mmHg 65%
    18:00 +1°C° 0 mm 2 m/s 620 mmHg 76%
    19:00 -2°C° 0 mm 2 m/s 620 mmHg 88%
    20:00 -2°C° 0 mm 2 m/s 620 mmHg 89%
    21:00 -2°C° 0 mm 2 m/s 620 mmHg 90%
    22:00 -3°C° 0 mm 2 m/s 620 mmHg 91%
    23:00 -3°C° 0 mm 2 m/s 620 mmHg 89%

    23 Outubro, Terça-feira

    Tempo Temperatura Precipitação Vento Pressão Humidade
    00:00 -3°C° 0 mm 2 m/s 620 mmHg 86%
    01:00 -3°C° 0 mm 2 m/s 620 mmHg 84%
    02:00 -2°C° 0.2 mm 2 m/s 620 mmHg 81%
    03:00 -2°C° 0.2 mm 2 m/s 621 mmHg 78%
    04:00 -1°C° 0.2 mm 2 m/s 621 mmHg 76%
    05:00 -1°C° 0.1 mm 2 m/s 621 mmHg 80%
    06:00 -2°C° 0.1 mm 2 m/s 621 mmHg 83%
    07:00 -2°C° 0.1 mm 2 m/s 621 mmHg 87%
    08:00 -1°C° 0.1 mm 2 m/s 621 mmHg 83%
    09:00 +1°C° 0.1 mm 2 m/s 621 mmHg 79%
    10:00 +1°C° 0.1 mm 3 m/s 622 mmHg 75%
    11:00 +2°C° 0 mm 3 m/s 622 mmHg 72%
    12:00 +2°C° 0 mm 3 m/s 622 mmHg 70%
    13:00 +2°C° 0 mm 3 m/s 621 mmHg 67%
    14:00 +2°C° 0 mm 3 m/s 621 mmHg 69%
    15:00 +1°C° 0 mm 3 m/s 621 mmHg 71%
    16:00 +1°C° 0 mm 3 m/s 621 mmHg 73%
    17:00 +1°C° 0 mm 2 m/s 621 mmHg 79%
    18:00 -1°C° 0 mm 2 m/s 620 mmHg 84%
    19:00 -2°C° 0 mm 2 m/s 620 mmHg 89%
    20:00 -2°C° 0 mm 2 m/s 620 mmHg 88%
    21:00 -2°C° 0 mm 2 m/s 620 mmHg 86%
    22:00 -2°C° 0 mm 2 m/s 620 mmHg 85%
    23:00 -2°C° 0.1 mm 2 m/s 620 mmHg 83%

    24 Outubro, Quarta-feira

    Tempo Temperatura Precipitação Vento Pressão Humidade
    00:00 -2°C° 0.1 mm 2 m/s 620 mmHg 82%
    01:00 -2°C° 0.1 mm 2 m/s 620 mmHg 80%
    02:00 -1°C° 0.5 mm 3 m/s 620 mmHg 82%
    03:00 -1°C° 0.5 mm 3 m/s 620 mmHg 85%
    04:00 -1°C° 0.5 mm 3 m/s 619 mmHg 87%
    05:00 0°C° 1.2 mm 3 m/s 619 mmHg 88%
    06:00 0°C° 1.2 mm 3 m/s 619 mmHg 90%
    07:00 0°C° 1.2 mm 3 m/s 619 mmHg 91%
    08:00 +1°C° 1.3 mm 3 m/s 620 mmHg 89%
    09:00 +2°C° 1.3 mm 3 m/s 620 mmHg 87%
    10:00 +3°C° 1.3 mm 3 m/s 620 mmHg 85%
    11:00 +3°C° 1.2 mm 3 m/s 620 mmHg 85%
    12:00 +4°C° 1.2 mm 3 m/s 620 mmHg 85%
    13:00 +4°C° 1.2 mm 3 m/s 620 mmHg 85%
    14:00 +4°C° 0.9 mm 3 m/s 620 mmHg 86%
    15:00 +4°C° 0.9 mm 3 m/s 620 mmHg 87%
    16:00 +4°C° 0.9 mm 3 m/s 620 mmHg 89%
    17:00 +3°C° 0.9 mm 3 m/s 620 mmHg 91%
    18:00 +3°C° 0.9 mm 3 m/s 620 mmHg 92%
    19:00 +3°C° 0.9 mm 3 m/s 620 mmHg 94%
    20:00 +3°C° 0.8 mm 3 m/s 620 mmHg 95%
    21:00 +2°C° 0.8 mm 3 m/s 620 mmHg 95%
    22:00 +2°C° 0.8 mm 3 m/s 620 mmHg 95%
    23:00 +2°C° 0.3 mm 3 m/s 620 mmHg 96%
    Mostrar mais